Regional Weather Roundup
Issued by NWS Burlington, VT

Current Version | Previous Version | Text Only | Print | Product List | Glossary On
Versions: 1 2 3 4 5 6 7 8 9 10 11 12 13 14 15 16 17 18 19 20 21 22 23 24 25 26 27 28 29 30 31 32 33 34 35 36 37 38 39 40 41 42 43 44 45 46 47 48 49 50
000 ASUS41 KBTV 200130 RWRBTV VERMONT REGIONAL WEATHER ROUNDUP NATIONAL WEATHER SERVICE BURLINGTON VT 800 PM EST FRI DEC 19 2014 NOTE: "FAIR" INDICATES FEW OR NO CLOUDS BELOW 12,000 FEET WITH NO SIGNIFICANT WEATHER AND/OR OBSTRUCTIONS TO VISIBILITY. * THESE REPORTS ARE NOT UNDER NWS QUALITY CONTROL AND/OR DO NOT REPORT WEATHER SUCH AS PRECIPITATION AND FOG. VTZ001>019-200200- _____VERMONT_____ CITY SKY/WX TMP DP RH WIND PRES REMARKS BURLINGTON CLEAR 21 14 74 NE6 30.20R MONTPELIER CLOUDY 19 15 84 NE8 30.15R MORRISVILLE CLOUDY 20 14 77 NW8 30.18R ST. JOHNSBURY* N/A 23 16 74 MISG 30.13R LYNDONVILLE* CLOUDY 20 15 79 NW8 30.13R MIDDLEBURY* MOCLDY 23 16 72 N7 30.17R RUTLAND* CLOUDY 23 16 74 NW7 30.13R SPRINGFIELD CLOUDY 25 17 72 VRB7 30.12R HIGHGATE* FAIR 15 13 90 CALM 30.22S NEWPORT* FAIR 14 11 90 N3 30.17R BENNINGTON CLOUDY 26 20 77 NW7 30.11R GALLUP MILLS* N/A 18 N/A N/A MISG N/A UNION VILLAGE* N/A 25 N/A N/A MISG N/A MT. MANSFIELD* N/A 18 N/A N/A CALM N/A _____LAKE CHAMPLAIN_____ CITY SKY/WX TMP DP RH WIND PRES REMARKS BURTON ISLAND* N/A 25 19 80 N2 N/A COLCHESTER RF* N/A 27 21 80 NE13 N/A WCI 16 $$ NYZ007-026>031-035-052-083-200200- _____NORTHERN NEW YORK_____ CITY SKY/WX TMP DP RH WIND PRES REMARKS PLATTSBURGH CLEAR 17 15 92 CALM 30.21R SARANAC LAKE CLOUDY 16 32 100 VRB3 30.11R MASSENA PTCLDY 14 11 87 SW6 30.25S OGDENSBURG* CLEAR 16 12 86 S3 30.25R POTSDAM* MOCLDY 18 16 93 SW5 30.24S STARK FALLS* N/A 16 N/A N/A CALM N/A WATERTOWN CLEAR 20 13 74 NE3 30.25R FT DRUM CLEAR 17 13 83 N3 30.22R ALBANY CLOUDY 28 19 69 NW12G20 30.17R WCI 18 GLENS FALLS CLOUDY 27 20 75 CALM 30.17R $$ NHZ002-005-011-200200- _____NEW HAMPSHIRE_____ CITY SKY/WX TMP DP RH WIND PRES REMARKS LEBANON CLOUDY 25 17 72 N12G17 30.12R WCI 14 KEENE CLOUDY 28 18 64 N13 30.10R WCI 18 MT WASHINGTON MOCLDY 21 16 79 NE37 N/A WCI 1 PLYMOUTH FAIR 26 23 90 W10G21 30.09R WCI 15 WHITEFIELD CLOUDY 22 17 81 N5 30.11R $$ _____REGIONAL QUEBEC LOCATIONS_____ CITY SKY/WX TMP DP RH WIND PRES REMARKS MONTREAL CLEAR 16 10 79 SW9 30.22S QUEBEC CITY CLEAR 14 10 85 VRB2 30.14R SHERBROOKE CLEAR 10 9 92 CALM 30.16S _____REGIONAL ONTARIO LOCATIONS_____ CITY SKY/WX TMP DP RH WIND PRES REMARKS OTTAWA CLEAR 12 10 92 W5 30.23R ______KEY______ VSB - VISIBILITY IN MILES WCI - WIND CHILL INDEX HX - HEAT INDEX $$

USA.gov is the U.S. government's official web portal to all federal, state and local government web resources and services.